STARLINK-37611, 69034

Orbit data source: Space-Track

STARLINK-37611, 69034 is a payload satellite owned by SpaceX/Seattle (US) in SSO that was launched on Wed, 06 May 2026 UTC via an FALCON 9 launch vehicle from the Air Force Western Test Range (AFWTR). Payload-class satellites include a variety of spacecraft equipped with specific instruments for various scientific and technological missions. These include communications satellites like Starlink; space stations such as the ISS; scientific satellites like the Hubble; Earth observation satellites from companies like Planet Labs, Umbra, and HawkEye 360; GPS; miniature CubeSats for education and research; and military/defense satellites.

Loading next visibility...
Identifier
69034, 2026-101K
Orbit
SSO
Country
Flag of USUS
Related business
Manufacturer
SpaceX/Seattle
Mission
Operational Commercial Communications
Bus & Motor
STARLINK V2MO, Unknown motor
Mass
575 kg wet, ~530 kg dry
Launch date (UTC)
2026-05-06 (3 months ago)
Launch vehicle
FALCON 9
Launch site
Air Force Western Test Range (AFWTR)
Object type
Payload
Rocket body
Debris
Shape & HBR
Box + 2 Pan, 17.7 m
Radar Cross Section
36.964 m², Large (>1 m²)

Expand to show TLE details & history
Last TLE update: 13 hours ago

TLE from 13 hours ago
0 STARLINK-37611
1 69034U 26101K   26206.57738150  .00023809  00000-0  73766-3 0  9998
2 69034  97.2853  60.8431 0002240  95.8626 264.2872 15.33435811 12451
Epoch: 2026-07-25T13:51Z
TLE epoch observation values (Epoch: 2026-07-25T13:51:25.761Z)
Latitude
-0.00004°
Longitude
-90.3019°
Altitude
468.835 km
Speed
7.632 km/s
True Right ascension
04h 03m 22s
True Declination
0° 00' 00"
Sunlit
Object was in daylight at epoch
Visualization orbit readout
Latitude
Unknown
Longitude
Unknown
Altitude
Unknown
Speed
Unknown
Apparent Right ascension
Unknown
Apparent Declination
Unknown
Sunlit
N/A
Visualization observer readout
Local Sidereal Time
16:19:10
Azimuth
Unknown
Elevation
Unknown
Doppler factor
Unknown
Orbital elements
Apogee altitude
464.046 km
Perigee altitude
460.981 km
Semi-major axis
6,840.65 km
Eccentricity
0.00022
Inclination
97.2853°
RAAN
60.8431°
Arg. of periapsis
95.8626°
True anomaly
264.26166°
Mean anomaly
264.2872°
Eccentric anomaly
264.27443°
Mean motion
3.83616 °/min
Orbital period
93.84 mins
BSTAR
0.00073766
Loading maneuver chart data...
Computing Atmospheric mass density...
Loading historical data...
Loading historical data...
Loading historical data...
Loading historical data...
Loading historical data...
Loading historical data...
Loading historical data...

Documentation

Showing up to 5 results
|